Location: Oberwangen
(47.4286°N, 8.9679°E)
Time: 07:09:21
(UTC+00:00)

USA 229 DEB - Pass Details

Date: 20 June 2021
Orbit: 955 x 1257 km, 63.4° (Epoch: 25 July)

Event Time Altitude Azimuth Distance (km) Brightness Sun altitude
Exits shadow 23:38:38 31° 196° (SSW) 1,662 4.2 -19.1°
Maximum altitude 23:41:48 66° 124° (ESE) 1,102 3.6 -19.0°
Drops below altitude 10° 23:48:33 10° 44° (NE) 2,910 6.7 -18.9°
Sets 23:51:18 0° 42° (NE) 3,915 7.6 -18.9°
